Regional Weather Roundup
Issued by NWS

Home | Current Version | Previous Version | Graphics & Text | Print | Product List | Glossary On
Versions: 1 2 3 4 5 6 7 8 9 10 11 12 13 14 15 16 17 18 19 20 21 22 23 24 25 26 27 28 29 30 31 32 33 34 35 36 37 38 39 40 41 42 43 44 45 46 47 48 49 50
000
ASUS43 KDMX 292207
RWRIA

WEATHER ROUNDUP FOR IOWA
NATIONAL WEATHER SERVICE DES MOINES IA
500 PM CDT FRI MAY 29 2015

NOTE: "FAIR" INDICATES FEW OR NO CLOUDS BELOW 12,000 FEET WITH NO
SIGNIFICANT WEATHER AND/OR OBSTRUCTIONS TO VISIBILITY.

* - THESE STATIONS ARE NOT NWS STATIONS...THUS NOT UNDER NWS
QUALITY CONTROL.  THEY ALSO DO NOT REPORT WEATHER SUCH
AS PRECIPITATION OR FOG.

IAZ001>003-012>014-020>022-031>034-043>046-292300-
   NORTHWEST IOWA

CITY           SKY/WX    TMP DP  RH WIND       PRES   REMARKS
CARROLL *      PTSUNNY   77  63  61 SW15      29.88F
CHEROKEE *     CLOUDY    66  61  82 N12G25    29.91R
DENISON *      SUNNY     75  66  73 SW14      29.87S
LE MARS *      CLOUDY    63  59  88 N17G25    29.95R
ORANGE CITY *  CLOUDY    57  55  94 N12G21    29.95R
SHELDON *      CLOUDY    59  57  94 N22G29    29.94R
SIOUX CITY     LGT RAIN  68  61  78 N20G26    29.89R
SPENCER        CLOUDY    61  56  83 N21       29.92R
STORM LAKE *   PTSUNNY   66  61  82 N18       29.90S
$$

IAZ055>058-069>071-079>083-090>094-292300-
   SOUTHWEST IOWA

CITY           SKY/WX    TMP DP  RH WIND       PRES   REMARKS
ATLANTIC *     PTSUNNY   75  66  73 SW17      29.90S
AUDUBON *      MOSUNNY   75  64  69 SW10G16   29.91S
CLARINDA *     SUNNY     73  66  78 SW9G17    29.93F
COUNCIL BLFS * SUNNY     75  63  64 SW10      29.90F
CRESTON *      PTSUNNY   72  66  83 SW14G21   29.92F
HARLAN  *      MOSUNNY   75  68  78 SW15      29.92F
LAMONI         CLOUDY    71  64  78 SW13      29.93F
RED OAK *      PTSUNNY   75  64  69 SW13      29.91S
SHENANDOAH *   PTSUNNY   75  66  73 SW14      29.91F
$$

IAZ047>049-059>061-072>074-084-292300-
   CENTRAL IOWA

CITY           SKY/WX    TMP DP  RH WIND       PRES   REMARKS
AMES           CLOUDY    74  64  71 SW16      29.88F
ANKENY *       PTSUNNY   73  66  78 SW12      29.89F
CHARITON *     SUNNY     70  64  83 SW9G17    29.91F
DES MOINES     CLOUDY    74  64  71 SW16      29.89S
GRINNELL*      CLOUDY    73  63  68 SW15G22   29.91F
KNOXVILLE *    CLOUDY    70  64  83 SW13      29.90F
MARSHALLTOWN   CLOUDY    74  63  68 SW16      29.89R
PELLA *        CLOUDY    72  66  83 SW10G18   29.92F
PERRY *          N/A     75  63  64 SW16      29.89S
$$

IAZ004>006-015-016-023>025-035-036-292300-
   NORTH CENTRAL IOWA

CITY           SKY/WX    TMP DP  RH WIND       PRES   REMARKS
ALGONA *       DRIZZLE   72  66  83 W7        29.87F
CLARION *      CLOUDY    70  64  83 S12       29.86F
ESTHERVILLE    CLOUDY    62  59  90 N22       29.91R
FORT DODGE *   CLOUDY    73  64  73 SW10      29.87F
MASON CITY     LGT RAIN  69  64  84 W6        29.89F
IOWA FALLS *   PTSUNNY   73  66  78 SW13      29.89F
$$

IAZ007>011-017>019-026>030-037>042-050>054-066-292300-
   NORTHEAST IOWA

CITY           SKY/WX    TMP DP  RH WIND       PRES   REMARKS
CEDAR RAPIDS   LGT RAIN  71  69  93 S8        29.90F
CHARLES CITY * SUNNY     68  68 100 S10       29.89F
CLINTON *      PTSUNNY   70  64  83 W12G17    29.92S
DECORAH *      PTSUNNY   73  64  73 CALM      29.87S
DUBUQUE        PTSUNNY   75  66  73 S8        29.90F
MONTICELLO *   MOSUNNY   79  66  65 SW12G20   29.89S HX  81
OELWEIN *      CLOUDY    75  64  69 W31G47    29.90R
WATERLOO       CLOUDY    69  66  90 NW5       29.88F
$$

IAZ064-065-067-068-078-292300-
   EAST CENTRAL IOWA

CITY           SKY/WX    TMP DP  RH WIND       PRES   REMARKS
DAVENPORT      PTSUNNY   80  62  54 SW18      29.90F HX  81
IOWA CITY      CLOUDY    72  68  87 SW7       29.91F
MT. PLEASANT * PTSUNNY   79  63  57 SW10      29.92F HX  80
MUSCATINE *    PTSUNNY   79  64  61 W12G20    29.91F HX  81
QUAD CITIES    PTSUNNY   80  64  58 SW15      29.89F HX  82
$$

IAZ062-063-075>077-085>089-095>099-292300-
   SOUTHEAST IOWA

CITY           SKY/WX    TMP DP  RH WIND       PRES   REMARKS
BURLINGTON     CLOUDY    78  66  66 SW14      29.91F HX  80
FAIRFIELD *    MOSUNNY   77  64  65 SW14      29.92F
FORT MADISON * SUNNY     79  66  65 SW9G17    29.94F HX  81
KEOKUK *       MOSUNNY   77  66  69 SW14      29.93F
OSKALOOSA *      N/A     73  63  68 SW13G22   29.92F
CENTERVILLE *  LGT RAIN  72  72 100 S8        29.94F
OTTUMWA        CLOUDY    73  66  78 SW12      29.91F
WASHINGTON *   SUNNY     77  66  69 W9        29.92F
$$

ABBREVIATIONS USED IN REMARKS
   TC - TEMPERATURES IN CELSIUS
  WCI - WIND CHILL INDEX
   HX - HEAT INDEX
  VSB - VISIBILITY
$$



USA.gov is the U.S. government's official web portal to all federal, state and local government web resources and services.